Regional Weather Roundup
Issued by NWS Sioux Falls, SD

Home | Current Version | Previous Version | Text Only | Print | Product List | Glossary On
Versions: 1 2 3 4 5 6 7 8 9 10 11 12 13 14 15 16 17 18 19 20 21 22 23 24 25 26 27 28 29 30 31 32 33 34 35 36 37 38 39 40 41 42 43 44 45 46 47 48 49 50
000
ASUS43 KFSD 041802
RWRFSD

WEATHER ROUNDUP FOR SE SOUTH DAKOTA/SW MINNESOTA/NW IOWA
NATIONAL WEATHER SERVICE SIOUX FALLS SD
100 PM CDT MON MAY 04 2015

NOTE: "FAIR" INDICATES FEW OR NO CLOUDS BELOW 12,000 FEET WITH NO
SIGNIFICANT WEATHER AND OR OBSTRUCTIONS TO VISIBILITY.


SDZ038>040-050-052>070-041900-
SOUTHEAST SOUTH DAKOTA

CITY           SKY/WX    TMP DP  RH WIND       PRES   REMARKS
BROOKINGS      SUNNY     64  28  25 E9G16     30.20F
CHAMBERLAIN    NOT AVBL
HURON          PTSUNNY   70  23  17 NE13      30.18F
6HR MIN TEMP:  34; 6HR MAX TEMP:  71;

MADISON        FAIR      66  23  19 E12G20    30.18F
MITCHELL       MOSUNNY   71  26  18 E10       30.16F
6HR MIN TEMP:  41; 6HR MAX TEMP:  71;

SIOUX FALLS    PTSUNNY   70  30  22 E16       30.16F
6HR MIN TEMP:  47; 6HR MAX TEMP:  70;

WINNER         MOCLDY    67  22  18 E14       30.19F
YANKTON        CLOUDY    70  34  26 NE14G21   30.14F
$$

MNZ071-072-080-081-089-090-097-098-041900-
SOUTHWEST MINNESOTA

CITY           SKY/WX    TMP DP  RH WIND       PRES   REMARKS
FAIRMONT       MOSUNNY   70  28  21 E16       30.16F
JACKSON        PTSUNNY   70  21  16 NE14G24   30.18S
LUVERNE        PTSUNNY   70  27  19 NE14      30.16F
MARSHALL       MOSUNNY   68  27  21 E8        30.19F
6HR MIN TEMP:  45; 6HR MAX TEMP:  68;

MONTEVIDEO     MOSUNNY   72  27  18 E3        30.20F
REDWOOD FALLS  SUNNY     70  26  19 N9G17     30.19S
TRACY          SUNNY     70  28  20 NE7G18    30.19F
WORTHINGTON    PTSUNNY   66  28  24 NE17G24   30.17F
$$

IAZ001>003-012>014-020>022-031-032-NEZ013-014-SDZ071-041900-
NORTHWEST IOWA

CITY           SKY/WX    TMP DP  RH WIND       PRES   REMARKS
DENISON        CLOUDY    66  45  45 E15G24    30.09F
ESTHERVILLE    PTSUNNY   68  32  26 NE17G25   30.15F
LE MARS        CLOUDY    70  34  26 NE16G24   30.14S
SIOUX CITY     PTSUNNY   70  37  29 E18G25    30.11F
6HR MIN TEMP:  56; 6HR MAX TEMP:  71;

SPENCER        PTSUNNY   68  35  29 NE18G29   30.15F
6HR MIN TEMP:  49; 6HR MAX TEMP:  69;

$$

ABBREVIATIONS USED IN REMARKS
   TC - TEMPERATURE IN CELSIUS
  WCI - WIND CHILL INDEX
   HX - HEAT INDEX
  VSB - VISIBILITY



USA.gov is the U.S. government's official web portal to all federal, state and local government web resources and services.